Temp
18 17 17 17 16 16 16 16 16 15 15 15 15 15 14 14 14 14 14 13 13 13 13 12 11 11 10 10 10 10 10 10 10 9 9 9 9 8 8 8 9 9 10
17 17 17 16 16 16 15 15 15 15 14 14 14 14 13 13 13 13 13 13 13 12 12 11 11 10 10 10 9 9 9 9 9 9 9 9 8 8 7 7 8 8 8
16 16 16 16 15 15 15 14 14 14 14 13 13 13 13 12 12 12 12 12 12 11 10 10 10 10 10 9 9 9 9 9 9 9 9 8 8 7 7 7 7 7 8
16 16 16 15 15 15 14 14 14 13 13 12 12 12 12 12 11 11 11 10 10 10 10 9 9 9 8 8 8 9 9 8 8 8 8 8 7 7 6 6 6 7 7
15 15 15 14 14 14 13 13 13 12 12 12 11 11 12 11 10 10 9 9 9 9 9 9 9 9 8 8 8 8 8 8 8 8 7 7 6 6 6 6 6 6 6
15 15 14 14 13 13 13 12 12 12 11 11 11 11 11 10 9 9 9 8 8 8 8 8 8 8 7 7 7 7 7 7 7 6 6 6 6 5 5 5 5 6 6
15 14 14 14 13 13 12 12 11 11 11 10 10 10 10 9 8 8 8 7 7 7 7 7 7 7 6 6 6 6 6 7 6 6 6 6 5 5 5 5 5 5 6
14 14 14 13 12 12 11 11 10 10 10 9 9 7 4 7 8 7 7 7 6 6 6 6 6 6 6 5 5 5 5 6 5 5 5 5 5 5 5 5 5 5 5
14 14 13 12 11 11 10 10 9 9 9 7 8 8 4 3 4 6 6 6 6 6 6 6 5 5 5 5 5 5 5 4 4 4 4 4 4 4 4 4 4 4 5
13 12 12 11 10 10 9 9 9 9 8 7 6 6 6 6 2 2 5 5 5 5 5 5 5 4 4 4 4 4 4 4 3 3 3 4 4 4 4 4 4 4 5
12 11 11 10 9 9 8 8 8 7 7 6 6 6 6 5 5 2 0 3 4 4 4 4 4 4 4 4 4 3 3 2 2 2 2 2 3 3 3 3 3 3 4
11 10 10 9 8 8 8 7 7 7 6 6 5 5 5 5 4 3 0 1 2 4 3 4 3 3 3 3 3 2 2 1 1 1 1 1 1 2 2 2 2 3 3
9 9 9 8 8 7 7 7 7 6 6 5 5 5 5 4 4 4 3 2 1 2 3 3 3 3 2 2 2 1 1 1 1 -0 -0 0 0 1 1 1 2 2 3
9 8 8 8 7 7 7 7 7 6 6 5 5 5 4 4 4 3 3 2 -1 0 1 2 2 2 1 1 0 0 -0 -0 -0 -1 -1 -1 -1 -0 0 1 1 2 2
9 8 7 7 7 7 7 6 6 6 6 5 5 5 4 3 3 2 3 2 1 -3 -2 1 0 -0 -1 -1 -1 -1 -1 -2 -2 -2 -2 -1 -1 -1 -0 0 0 1 1
8 8 7 7 7 6 6 6 6 6 5 5 4 4 3 3 3 2 2 2 1 -1 -4 -1 -1 -2 -3 -3 -3 -3 -3 -3 -3 -2 -2 -2 -2 -1 -1 -1 -1 -0 0
8 8 7 7 6 6 6 6 5 5 5 4 3 3 3 2 2 2 1 1 0 -1 -3 -3 -3 -3 -4 -4 -4 -4 -3 -3 -3 -3 -3 -2 -2 -2 -2 -1 -1 -1 -1
8 7 7 6 6 6 6 5 5 5 4 4 3 3 2 2 2 1 1 0 -1 -2 -3 -4 -4 -4 -4 -4 -4 -4 -4 -4 -4 -4 -4 -3 -3 -3 -3 -2 -3 -2 -1
8 7 7 6 6 6 6 5 5 5 4 3 3 2 2 2 1 1 0 -1 -2 -3 -3 -4 -5 -5 -5 -4 -4 -5 -5 -5 -4 -5 -4 -4 -3 -3 -3 -3 -3 -2 -1
7 7 7 6 6 6 6 5 5 4 4 3 2 2 2 1 0 -0 -1 -2 -3 -3 -4 -4 -5 -6 -6 -5 -5 -5 -5 -5 -5 -5 -5 -5 -4 -4 -3 -3 -3 -3 -1
7 7 7 6 6 6 6 5 5 4 3 3 2 1 1 0 -0 -1 -2 -3 -3 -4 -4 -5 -6 -6 -6 -6 -6 -6 -6 -6 -6 -6 -5 -5 -5 -4 -3 -3 -3 -3 -2
6 6 7 6 6 6 6 5 5 4 3 2 2 1 0 -0 -1 -1 -2 -3 -4 -5 -5 -6 -7 -7 -7 -7 -7 -7 -7 -7 -6 -5 -5 -6 -5 -4 -4 -3 -3 -4 -3
5 6 5 6 6 6 6 5 4 3 2 1 1 -0 -1 -1 -2 -2 -3 -3 -3 -4 -5 -6 -7 -7 -7 -7 -7 -7 -7 -7 -7 -6 -6 -6 -4 -5 -3 -3 -2 -2 -2
5 4 5 5 6 6 5 5 4 2 2 1 -0 -1 -1 -2 -2 -3 -3 -3 -4 -4 -5 -6 -7 -7 -7 -7 -7 -7 -6 -6 -6 -5 -6 -6 -4 -4 -4 -3 -2 -1 -1
4 4 4 4 5 5 5 4 3 2 1 0 -1 -1 -2 -2 -3 -3 -4 -4 -4 -4 -5 -6 -6 -6 -7 -7 -7 -6 -7 -7 -6 -6 -5 -6 -5 -4 -4 -2 -2 -2 -1
3 3 3 3 3 4 4 3 2 2 1 -0 -1 -2 -2 -3 -3 -4 -4 -5 -6 -5 -6 -6 -6 -6 -6 -6 -7 -7 -7 -7 -7 -6 -5 -5 -5 -5 -4 -3 -3 -3 -2
Height
859 859 861 862 864 864 865 864 864 865 864 864 864 863 863 864 862 861 861 859 858 860 859 858 857 857 856 857 856 855 855 853 853 852 850 848 847 846 845 842 839 837 835
858 859 862 862 863 865 863 862 863 863 863 863 863 864 863 863 861 859 858 856 857 857 857 857 856 856 856 856 856 855 855 853 853 851 850 848 847 847 845 843 840 837 835
856 860 862 862 863 862 862 863 864 863 862 862 863 863 863 862 860 859 858 858 856 856 857 857 856 855 855 855 854 854 854 853 851 850 849 848 847 847 844 842 839 837 834
857 860 862 860 861 861 862 862 863 862 861 862 863 862 861 861 861 861 861 859 859 857 858 857 856 856 856 855 853 852 852 852 850 849 849 847 846 844 843 841 838 835 832
857 860 860 860 860 861 861 862 863 863 862 861 861 861 862 862 862 862 862 861 860 859 858 857 857 856 855 854 853 852 849 849 848 847 846 845 843 842 840 839 836 833 829
857 859 858 859 860 860 862 863 864 862 861 861 861 862 863 863 863 862 863 862 861 860 859 857 856 855 854 852 851 849 847 846 845 845 844 842 841 840 839 836 833 830 827
856 857 857 858 859 860 862 862 862 862 862 861 861 861 862 862 862 862 863 862 861 860 859 858 856 854 853 851 850 847 846 843 842 842 841 840 838 837 836 833 830 826 823
855 856 857 858 859 860 861 861 861 861 861 860 860 861 862 862 860 861 862 860 859 859 858 858 857 855 853 850 847 845 843 842 840 839 838 837 836 833 831 828 825 823 820
854 855 856 857 859 859 859 859 859 859 859 859 858 859 862 864 861 859 858 858 857 857 857 856 855 854 852 849 846 843 841 840 838 836 835 834 833 831 826 823 820 817 814
854 855 856 857 858 858 857 856 855 856 856 857 858 858 858 857 858 858 854 853 853 853 853 853 852 851 850 848 845 842 839 836 835 833 831 830 829 827 824 819 816 812 809
854 855 856 856 855 855 857 856 853 854 856 857 856 856 855 854 853 852 852 849 848 847 848 848 847 847 846 844 842 837 835 833 831 829 827 825 823 822 819 816 811 808 805
853 854 855 855 855 854 854 855 853 855 855 854 854 854 853 853 853 852 851 848 846 845 843 843 843 842 842 839 838 834 831 829 827 825 823 821 819 817 813 811 807 803 800
853 854 853 852 852 853 853 854 852 854 855 854 852 852 851 850 849 849 849 847 845 843 842 841 839 838 838 834 833 831 828 824 821 819 817 815 813 810 806 803 800 797 794
851 851 854 853 850 852 852 852 852 851 852 851 851 850 849 849 849 847 847 847 845 842 838 837 837 835 834 832 830 827 822 819 816 813 810 808 805 802 799 796 793 790 788
851 850 850 852 850 852 850 849 851 851 850 851 849 847 846 846 846 846 846 845 844 843 837 835 835 833 832 829 825 822 817 814 811 808 804 802 799 796 793 790 787 785 783
848 848 847 848 849 849 849 846 848 848 847 847 846 846 845 844 844 844 843 842 841 840 837 835 832 830 828 825 821 817 812 809 806 802 799 797 794 790 787 784 782 779 777
844 845 846 846 846 845 846 843 844 845 844 843 842 844 843 842 843 842 841 839 838 836 835 832 829 826 823 820 815 811 807 803 800 797 794 791 788 785 782 779 775 772 769
839 841 843 843 843 843 844 842 842 841 841 841 840 840 840 839 840 839 837 836 835 832 832 828 824 823 820 816 811 806 803 800 797 793 790 785 782 780 776 773 769 765 762
835 837 838 839 839 839 839 839 837 837 836 837 837 837 838 836 836 835 834 833 830 829 827 825 821 819 816 812 807 803 800 796 793 790 785 781 778 774 771 768 764 759 756
833 835 835 835 835 836 836 836 834 834 834 834 832 832 832 832 833 832 831 829 827 826 823 820 818 816 813 809 805 801 796 793 788 784 779 775 773 769 766 762 758 753 751
830 831 831 831 831 832 832 831 830 830 830 831 830 828 829 829 828 827 826 824 823 821 819 817 815 812 809 806 803 799 794 789 783 779 774 772 768 763 759 756 753 749 746
825 828 827 825 826 826 825 826 826 826 825 825 825 824 824 824 824 823 820 821 819 817 816 814 812 810 806 804 800 795 791 787 780 775 772 767 764 758 755 752 750 747 743
824 823 822 820 819 818 819 820 821 823 823 825 824 822 822 821 820 819 818 818 815 815 813 812 808 807 803 800 796 792 788 784 779 773 771 765 759 755 751 748 746 743 741
820 818 817 817 814 813 813 814 816 816 817 817 818 818 817 816 815 815 814 812 811 810 809 807 806 803 800 797 794 789 784 779 775 770 767 763 755 752 748 744 740 740 737
817 814 812 812 811 809 809 810 812 813 813 814 814 814 813 812 812 811 809 808 806 806 805 804 803 800 797 794 790 786 782 778 771 765 763 759 752 749 745 740 738 736 734
814 811 808 808 806 805 805 806 807 808 808 810 810 810 809 808 808 807 806 805 803 803 802 801 799 796 794 790 787 784 780 776 772 764 759 757 751 749 744 739 738 735 733
Wind_Speed
12 11 12 11 10 7 7 5 5 7 8 7 8 10 11 10 9 11 10 9 10 7 1 4 5 5 6 7 9 10 10 11 12 14 16 17 18 21 22 22 24 23 22
12 10 9 8 6 7 8 7 6 5 6 7 9 8 10 10 11 11 12 12 7 7 2 4 5 5 5 6 8 9 11 11 10 13 15 14 16 20 22 23 24 24 23
10 10 9 8 7 5 5 6 6 4 5 9 11 8 6 13 12 13 12 11 9 3 2 6 5 5 5 4 6 7 8 9 12 14 14 12 14 16 22 24 24 24 24
13 11 8 8 6 5 6 5 5 7 8 9 5 6 11 9 9 11 12 17 16 10 4 6 6 7 6 5 5 5 6 8 11 12 11 12 15 17 19 22 24 24 24
12 10 8 8 5 4 4 7 9 10 8 6 6 5 4 7 8 9 13 16 16 14 10 4 6 8 7 2 3 5 6 10 11 10 11 13 15 17 19 21 22 24 24
12 8 7 5 4 4 6 9 11 9 9 10 4 2 2 4 8 11 11 14 13 14 12 10 7 6 7 5 5 7 9 10 9 10 11 12 15 17 20 21 23 23 24
9 5 2 2 5 6 7 9 7 9 10 6 4 3 2 3 7 11 13 10 10 11 14 14 13 5 5 7 9 11 11 10 8 10 13 14 15 19 21 23 23 24 24
8 4 2 3 3 4 3 4 6 7 5 3 1 1 2 3 2 12 9 8 11 12 15 19 14 11 12 11 10 8 8 9 9 10 12 14 16 22 25 26 27 26 24
7 4 5 3 2 4 4 4 4 1 4 5 4 2 1 2 2 1 2 7 10 12 15 19 12 15 14 9 11 12 10 9 9 10 13 16 19 22 27 30 30 29 26
8 6 3 1 4 4 4 4 4 3 4 3 2 4 3 4 3 2 0 1 6 9 12 9 14 16 13 15 18 14 14 14 9 8 12 17 21 23 25 29 31 30 28
7 4 1 2 4 5 4 3 6 6 5 2 2 2 4 3 3 3 3 3 6 7 7 10 16 15 19 21 18 19 15 6 6 8 12 18 23 27 27 29 32 31 29
7 4 2 5 5 4 2 1 4 5 3 2 1 2 2 3 4 3 2 5 6 5 6 9 11 16 20 20 21 14 8 10 11 12 15 19 23 27 31 31 32 31 30
8 4 2 3 4 1 1 5 7 5 4 4 4 7 8 7 5 7 6 5 3 7 4 11 17 18 18 17 13 12 17 19 22 23 22 23 26 30 31 31 29 29 28
5 4 4 5 5 3 4 7 8 6 7 7 6 8 9 6 7 3 4 5 3 4 7 12 18 11 7 12 19 21 24 28 31 26 23 23 24 24 23 24 25 26 25
3 1 2 5 6 6 6 6 9 10 10 10 12 9 6 3 3 7 10 5 5 3 3 7 7 11 19 23 26 26 26 25 21 21 21 20 22 22 22 23 22 23 21
2 2 3 5 7 8 9 8 6 6 7 9 6 6 9 10 12 10 6 8 5 3 2 7 15 22 24 25 22 20 21 22 24 20 19 21 20 21 22 21 22 25 27
1 3 4 7 8 8 9 9 6 8 7 6 4 5 5 4 5 9 9 8 7 8 6 13 22 24 25 25 23 22 23 22 21 20 20 20 23 21 20 21 23 25 25
5 5 5 8 9 10 11 8 8 8 8 7 6 5 4 5 9 9 10 9 10 10 8 12 22 26 26 24 24 25 23 23 20 22 21 23 21 18 20 21 23 25 27
8 7 8 9 10 11 12 12 13 12 9 7 5 5 5 7 9 8 11 11 9 10 10 14 19 26 27 26 27 26 23 22 25 22 25 25 20 21 20 21 25 22 20
10 8 11 10 11 12 14 18 14 11 11 10 7 7 10 8 9 10 11 8 9 10 13 18 20 21 20 25 23 21 20 24 28 33 27 20 22 23 22 21 25 19 18
5 10 12 18 18 18 19 22 19 16 13 10 8 7 8 9 10 10 8 7 7 10 15 19 16 17 17 17 17 21 21 24 28 24 20 18 27 23 22 23 23 21 11
5 12 17 22 25 23 22 22 21 18 16 13 10 9 10 11 12 11 9 8 9 11 15 16 15 15 14 20 22 21 23 19 10 16 17 29 24 23 21 19 20 20 10
9 19 25 24 22 26 23 22 20 16 11 12 12 9 9 11 12 11 10 10 13 15 15 15 18 16 21 22 22 23 20 19 20 28 20 19 24 23 20 19 18 19 14
13 16 20 20 21 21 21 20 19 16 14 15 12 10 11 12 11 11 11 14 15 18 17 13 14 20 20 22 21 22 23 22 22 24 17 9 23 19 23 20 15 12 14
18 14 14 16 17 16 18 19 18 16 12 14 11 11 12 12 12 12 11 13 18 20 12 11 13 15 18 17 16 18 17 17 18 21 20 13 16 18 21 11 17 10 10
15 16 17 18 18 16 16 18 19 15 15 13 12 11 11 13 12 10 11 14 18 17 14 16 17 18 18 19 17 14 15 15 16 13 12 9 18 13 7 7 19 16 19
Wind_Direction
145 137 124 122 108 92 79 68 55 62 65 56 45 31 14 15 13 17 24 29 14 352 10 142 117 86 67 54 52 51 38 32 28 25 19 12 9 6 1 356 350 349 346
146 136 132 122 92 76 72 59 53 53 61 49 32 20 23 19 11 357 355 354 10 358 291 131 99 80 70 65 60 41 29 28 32 18 8 7 1 356 353 349 345 340 339
149 153 132 101 92 74 74 79 74 43 20 8 5 14 19 8 3 355 15 23 45 89 125 104 75 81 81 70 50 38 26 31 17 5 4 3 356 347 342 341 339 335 332
143 134 115 88 79 73 82 40 7 6 6 1 19 3 356 39 45 54 52 47 47 55 100 64 79 75 54 44 37 19 338 354 356 352 350 349 345 337 336 333 331 329 328
137 129 110 104 92 63 29 10 359 354 2 16 7 1 17 31 64 58 53 46 42 49 52 39 16 338 334 0 346 336 343 334 331 334 333 335 338 336 331 327 324 323 323
133 139 111 89 45 355 343 334 334 342 346 336 313 348 20 55 62 54 41 28 49 58 50 32 19 346 323 319 327 320 315 318 325 329 325 321 320 322 322 323 321 317 318
136 141 138 288 302 316 328 328 330 330 329 318 270 330 294 141 38 26 9 42 38 32 31 32 22 27 358 1 347 332 321 317 316 318 318 318 315 316 318 319 319 314 313
160 177 234 263 283 293 306 316 323 320 311 359 47 89 3 302 322 355 355 22 24 9 0 2 7 6 349 347 345 344 329 314 309 314 315 314 315 314 316 317 316 312 308
183 210 200 207 272 309 325 316 331 299 290 84 95 178 77 225 314 165 67 18 352 335 324 337 2 359 348 345 346 345 339 333 321 313 309 310 311 311 312 313 314 309 304
185 200 215 272 322 337 323 332 343 315 191 168 105 87 147 190 190 281 165 300 357 347 335 328 327 337 333 337 337 327 319 311 296 301 304 308 310 311 309 308 309 306 301
168 158 171 336 0 360 11 73 94 85 80 73 322 279 264 252 205 182 227 272 313 334 326 324 322 310 312 315 319 325 320 296 303 316 313 312 311 309 306 304 303 300 296
160 146 52 15 17 20 90 60 41 355 343 329 309 251 259 228 259 260 253 273 274 304 298 318 315 313 316 313 319 317 304 316 323 324 318 313 307 304 301 298 296 293 289
144 109 32 60 18 37 283 323 347 345 334 307 314 307 298 260 269 281 272 289 272 295 273 312 318 320 312 307 303 313 314 315 317 316 313 307 302 299 296 293 288 286 286
152 116 23 359 38 16 317 312 318 313 311 294 293 317 271 253 309 340 321 304 309 285 288 311 325 320 323 315 314 316 313 314 315 316 311 305 303 301 297 296 289 285 282
126 1 2 350 355 328 328 324 293 310 300 280 286 273 247 256 267 319 314 306 306 298 297 321 327 311 317 308 309 312 312 314 313 311 312 310 307 304 299 298 296 289 283
173 349 340 332 323 326 323 335 304 294 286 285 269 236 253 266 268 278 282 292 294 283 276 304 303 315 315 318 318 313 315 314 315 314 311 312 313 315 308 297 296 289 282
281 320 312 316 312 315 299 300 301 308 290 256 210 235 256 248 257 282 285 293 302 325 281 304 312 321 325 325 325 324 325 329 323 323 319 314 314 320 316 305 299 296 295
241 267 271 306 300 293 297 259 288 291 273 232 225 239 264 261 275 277 280 295 303 317 299 299 319 320 322 326 325 328 329 330 324 326 321 322 314 314 313 318 311 297 291
224 222 277 302 284 268 277 259 279 272 220 224 228 253 283 278 275 276 290 291 298 309 311 311 308 314 319 325 326 325 322 321 322 320 318 318 313 313 316 313 321 304 287
219 253 279 290 280 272 269 252 263 243 231 232 226 256 270 277 285 294 286 281 298 303 318 316 309 304 309 320 316 313 315 318 316 320 316 307 305 304 312 320 316 309 287
246 276 274 289 276 269 271 249 257 256 241 230 237 250 264 282 294 286 270 293 298 314 318 316 305 305 313 322 326 319 307 310 312 315 311 317 322 314 312 323 313 329 292
309 295 286 280 275 271 262 247 252 246 243 245 245 249 263 277 291 278 282 290 312 323 315 310 303 300 304 313 314 310 307 308 314 319 308 314 324 316 317 321 312 314 312
296 280 291 291 283 273 262 247 240 240 236 264 260 252 264 277 283 275 275 291 315 319 316 302 302 306 314 318 322 312 304 300 293 308 308 304 322 316 322 314 311 305 307
278 298 302 301 291 284 261 237 229 229 239 249 244 258 270 281 279 267 277 301 313 320 321 314 306 310 316 316 314 308 304 310 307 313 317 281 312 313 325 323 330 286 300
300 298 296 300 298 289 258 232 227 226 243 244 251 260 272 274 276 261 283 305 314 319 318 318 315 316 324 323 322 325 327 324 316 313 318 282 294 314 324 324 7 4 333
289 296 295 295 292 281 252 229 230 234 237 241 249 262 276 275 272 263 286 305 309 311 312 313 318 321 327 332 326 323 326 312 309 312 329 296 293 304 316 304 339 344 352